N1IJV-10 Weather Reports


Display with metric or nautical units.
time (UTC)temp
F
wind
direction
speed
MPH
gust
MPH
rain 1hr
in
rain 24hr
in
rain mn
in
humidity
%
barometer
mb
20260505211952 56 310 2.0 3.0 0.00 0.08 0.08 42 1008.6
20260505211449 55 167 1.0 5.0 0.00 0.08 0.08 40 1008.4
20260505210945 55 71 2.0 5.0 0.00 0.08 0.08 42 1008.5
20260505210443 55 132 1.0 5.0 0.00 0.08 0.08 42 1008.4
20260505205939 55 275 3.0 3.0 0.00 0.08 0.08 40 1008.3
20260505205438 55 254 3.0 3.0 0.00 0.08 0.08 42 1008.4
20260505204934 55 78 2.0 3.0 0.00 0.08 0.08 44 1008.4
20260505204432 55 293 3.0 3.0 0.00 0.08 0.08 45 1008.4
20260505203929 55 258 2.0 5.0 0.00 0.08 0.08 42 1008.5
20260505203426 55 261 4.0 5.0 0.00 0.08 0.08 40 1008.7
20260505202922 55 77 3.0 3.0 0.00 0.08 0.08 42 1008.5
20260505202418 55 3 5.0 6.0 0.00 0.08 0.08 39 1008.4
20260505201915 55 233 2.0 5.0 0.00 0.08 0.08 42 1008.7
20260505201412 55 157 2.0 5.0 0.00 0.08 0.08 42 1008.6
20260505200910 55 307 2.0 3.0 0.00 0.08 0.08 41 1008.6
20260505200407 55 40 3.0 6.0 0.00 0.08 0.08 44 1008.7
20260505195902 55 228 3.0 3.0 0.00 0.08 0.08 42 1008.8
20260505195400 56 78 1.0 3.0 0.00 0.08 0.08 46 1008.6
20260505194857 55 85 1.0 1.0 0.00 0.08 0.08 43 1008.8
20260505194355 55 5 2.0 5.0 0.00 0.08 0.08 40 1008.7
20260505193855 55 354 1.0 5.0 0.00 0.08 0.08 41 1008.5
20260505193353 56 70 2.0 2.0 0.00 0.08 0.08 40 1008.7
20260505192850 55 136 1.0 2.0 0.00 0.08 0.08 42 1008.8
20260505192348 55 5 1.0 2.0 0.00 0.08 0.08 40 1008.8
20260505191845 56 338 3.0 3.0 0.00 0.08 0.08 41 1008.7
20260505191344 56 48 1.0 2.0 0.00 0.08 0.08 48 1008.9
20260505190840 56 93 1.0 3.0 0.00 0.08 0.08 42 1008.9
20260505190336 55 298 2.0 2.0 0.00 0.08 0.08 44 1008.9
20260505185832 55 64 1.0 2.0 0.00 0.08 0.08 47 1009.0
20260505185328 56 18 5.0 6.0 0.00 0.08 0.08 44 1008.9
20260505184824 55 83 1.0 2.0 0.00 0.08 0.08 46 1008.9
20260505184322 55 144 1.0 5.0 0.00 0.08 0.08 44 1009.0
20260505183819 56 4 1.0 6.0 0.00 0.08 0.08 48 1008.8
20260505183316 56 308 2.0 5.0 0.00 0.08 0.08 47 1009.1
20260505182812 56 69 1.0 6.0 0.00 0.08 0.08 45 1008.9
20260505182309 55 42 2.0 3.0 0.00 0.08 0.08 42 1008.9
20260505181806 56 91 2.0 5.0 0.00 0.08 0.08 45 1008.8
20260505181303 57 59 1.0 2.0 0.00 0.08 0.08 45 1008.7
20260505180800 56 40 1.0 3.0 0.00 0.08 0.08 46 1008.9
20260505180256 56 29 2.0 3.0 0.00 0.08 0.08 44 1008.8
20260505175752 56 7 7.0 8.0 0.00 0.08 0.08 44 1008.8
20260505175249 56 269 5.0 7.0 0.00 0.08 0.08 44 1008.8
20260505174746 56 65 2.0 5.0 0.00 0.08 0.08 47 1008.9
20260505174243 56 264 3.0 5.0 0.00 0.08 0.08 44 1008.7
20260505173739 56 21 4.0 5.0 0.00 0.08 0.08 43 1008.4
20260505173236 56 341 4.0 5.0 0.00 0.08 0.08 44 1008.6
20260505172733 57 174 3.0 5.0 0.00 0.08 0.08 43 1008.8
20260505172230 56 80 1.0 6.0 0.00 0.08 0.08 47 1008.7
20260505171729 57 11 3.0 5.0 0.00 0.08 0.08 48 1008.6
20260505171227 56 85 2.0 3.0 0.00 0.08 0.08 45 1008.4
20260505170723 57 292 3.0 5.0 0.00 0.08 0.08 41 1008.3
20260505170220 57 22 3.0 5.0 0.00 0.08 0.08 45 1008.5
20260505165716 57 268 4.0 5.0 0.00 0.08 0.08 45 1008.3
20260505165212 58 195 1.0 2.0 0.00 0.08 0.08 43 1008.3
20260505164707 57 327 3.0 5.0 0.00 0.08 0.08 43 1008.2
20260505164205 57 169 2.0 5.0 0.00 0.08 0.08 42 1008.2
20260505163703 57 20 3.0 5.0 0.00 0.08 0.08 42 1008.3
20260505163201 57 76 2.0 7.0 0.00 0.08 0.08 44 1008.4
20260505162658 56 3 1.0 5.0 0.00 0.08 0.08 44 1008.6
20260505162155 57 26 2.0 6.0 0.00 0.08 0.08 47 1008.5
20260505161652 55 26 3.0 5.0 0.00 0.08 0.08 47 1008.6
20260505161149 55 82 1.0 3.0 0.00 0.08 0.08 53 1008.5
20260505160647 55 111 1.0 3.0 0.00 0.08 0.08 51 1008.5
20260505160144 54 69 1.0 2.0 0.00 0.08 0.08 53 1008.4
20260505153124 54 26 3.0 5.0 0.00 0.08 0.08 55 1008.1
20260505152620 54 265 2.0 3.0 0.00 0.08 0.08 55 1008.0
20260505152116 53 340 2.0 5.0 0.00 0.08 0.08 62 1008.1
20260505151611 53 266 2.0 3.0 0.00 0.08 0.08 54 1008.1
20260505151109 53 274 3.0 3.0 0.00 0.08 0.08 57 1008.2
20260505150605 52 273 2.0 3.0 0.00 0.08 0.08 57 1008.0
20260505140531 48 48 1.0 2.0 0.00 0.08 0.08 82 1008.6
20260505124944 44 90 0.0 0.0 0.12 0.08 0.08 90 1008.1
20260505124441 45 80 0.0 0.0 0.07 0.07 0.07 89 1008.5
20260505123937 45 97 0.0 0.0 0.05 0.06 0.06 89 1008.3
20260505123434 45 86 1.0 1.0 0.12 0.06 0.06 88 1008.9
20260505122929 45 131 1.0 1.0 0.07 0.05 0.05 87 1008.8
20260505122427 45 93 0.0 0.0 0.07 0.04 0.04 86 1008.4
20260505121924 46 82 0.0 0.0 0.00 0.03 0.03 84 1008.4
20260505121421 46 84 0.0 0.0 0.05 0.03 0.03 81 1008.3
20260505120916 46 73 0.0 1.0 0.05 0.03 0.03 82 1008.3
20260505120413 47 84 0.0 0.0 0.07 0.02 0.02 81 1008.7
20260505115912 47 51 1.0 2.0 0.07 0.02 0.02 80 1008.8
20260505115409 48 69 1.0 2.0 0.05 0.01 0.01 77 1008.6
20260505114907 48 95 1.0 2.0 0.05 0.01 0.01 74 1008.5
20260505114403 48 29 0.0 0.0 0.00 0.00 0.00 73 1008.1
20260505113859 49 79 0.0 0.0 0.00 0.00 0.00 69 1007.7
20260505113356 49 93 0.0 0.0 0.00 0.00 0.00 67 1007.4
20260505112852 49 80 1.0 1.0 0.00 0.00 0.00 66 1007.4
20260505112350 50 54 1.0 2.0 0.00 0.00 0.00 63 1007.6
20260505111845 50 74 1.0 2.0 0.00 0.00 0.00 63 1006.8
20260505111341 50 76 0.0 1.0 0.00 0.00 0.00 63 1006.4
20260505110837 50 95 0.0 1.0 0.00 0.00 0.00 64 1006.0
20260505110334 50 87 0.0 1.0 0.00 0.00 0.00 62 1006.1
20260505101809 51 11 0.0 0.0 0.00 0.00 0.00 62 1005.4
20260505101305 51 87 0.0 0.0 0.00 0.00 0.00 60 1005.1
20260505100801 51 89 0.0 1.0 0.00 0.00 0.00 62 1005.3
20260505100258 51 41 1.0 1.0 0.00 0.00 0.00 60 1005.4
20260505095753 52 88 0.0 0.0 0.00 0.00 0.00 58 1005.5
20260505095251 52 80 1.0 3.0 0.00 0.00 0.00 57 1005.4
20260505094746 52 81 0.0 1.0 0.00 0.00 0.00 60 1005.5
20260505094244 52 77 1.0 2.0 0.00 0.00 0.00 57 1005.6
20260505093739 52 64 2.0 3.0 0.00 0.00 0.00 56 1005.8
20260505093237 53 74 0.0 1.0 0.00 0.00 0.00 56 1005.6
20260505092734 53 81 0.0 5.0 0.00 0.00 0.00 54 1005.5
20260505092233 53 85 0.0 2.0 0.00 0.00 0.00 57 1005.7
20260505091729 53 78 1.0 3.0 0.00 0.00 0.00 58 1005.8
20260505091228 53 33 1.0 2.0 0.00 0.00 0.00 60 1005.6
20260505090725 54 97 0.0 2.0 0.00 0.00 0.00 60 1005.4
20260505090223 54 5 4.0 5.0 0.00 0.00 0.00 60 1005.1
20260505085720 54 58 1.0 2.0 0.00 0.00 0.00 59 1004.9
20260505085218 54 259 2.0 2.0 0.00 0.00 0.00 58 1004.9
20260505084715 55 348 2.0 3.0 0.00 0.00 0.00 57 1004.6
20260505084214 55 353 3.0 5.0 0.00 0.00 0.00 56 1004.5
20260505083711 55 43 0.0 3.0 0.00 0.00 0.00 57 1004.4
20260505083208 55 58 2.0 3.0 0.00 0.00 0.00 56 1004.1
20260505082703 55 54 2.0 3.0 0.00 0.00 0.00 56 1004.2
20260505082201 55 63 1.0 2.0 0.00 0.00 0.00 55 1003.7
20260505081656 55 23 2.0 3.0 0.00 0.00 0.00 55 1003.5
20260505081154 55 51 2.0 2.0 0.00 0.00 0.00 56 1003.5
20260505080651 55 28 1.0 2.0 0.00 0.00 0.00 54 1003.3
20260505080147 55 14 2.0 3.0 0.00 0.00 0.00 54 1003.3
20260505075643 55 352 2.0 2.0 0.00 0.00 0.00 55 1003.2
20260505075140 55 17 1.0 3.0 0.00 0.00 0.00 56 1003.0
20260505074637 55 76 1.0 2.0 0.00 0.00 0.00 56 1003.0
20260505074134 56 18 2.0 3.0 0.00 0.00 0.00 55 1003.0
20260505073631 56 71 2.0 2.0 0.00 0.00 0.00 55 1002.8
20260505073129 56 78 1.0 3.0 0.00 0.00 0.00 56 1002.7
20260505072624 56 19 3.0 3.0 0.00 0.00 0.00 56 1002.8
20260505072122 56 61 2.0 2.0 0.00 0.00 0.00 57 1002.8
20260505071617 56 40 3.0 3.0 0.00 0.00 0.00 57 1002.7
20260505071115 56 76 1.0 3.0 0.00 0.00 0.00 57 1002.6
20260505070612 56 86 0.0 2.0 0.00 0.00 0.00 56 1002.6
20260505070108 56 66 2.0 2.0 0.00 0.00 0.00 58 1002.5
20260505065604 55 83 1.0 1.0 0.00 0.00 0.00 58 1002.3
20260505065101 56 85 0.0 0.0 0.00 0.00 0.00 60 1002.3
20260505064558 56 69 1.0 1.0 0.00 0.00 0.00 58 1002.3
20260505064057 57 77 1.0 1.0 0.00 0.00 0.00 57 1002.5
20260505063553 57 84 1.0 1.0 0.00 0.00 0.00 55 1002.2
20260505063049 57 179 2.0 2.0 0.00 0.00 0.00 55 1002.3
20260505062546 58 51 2.0 3.0 0.00 0.00 0.00 52 1002.4
20260505062043 58 44 2.0 3.0 0.00 0.00 0.00 52 1002.2
20260505061540 58 4 2.0 5.0 0.00 0.00 0.00 52 1002.3
20260505061038 58 20 1.0 3.0 0.00 0.00 0.00 54 1002.1
20260505060536 58 77 2.0 2.0 0.00 0.00 0.00 55 1002.0
20260505060032 58 89 1.0 2.0 0.00 0.00 0.00 55 1002.3
20260505055527 58 44 1.0 5.0 0.00 0.00 0.00 54 1002.1
20260505055024 58 78 1.0 2.0 0.00 0.00 0.00 58 1002.0
20260505054522 58 132 1.0 5.0 0.00 0.00 0.00 55 1002.0
20260505054020 58 270 1.0 2.0 0.00 0.00 0.00 56 1002.3
20260505053517 58 312 1.0 3.0 0.00 0.00 0.00 57 1002.3
20260505053013 57 315 2.0 3.0 0.00 0.00 0.00 59 1002.4
20260505052510 56 2 1.0 2.0 0.00 0.00 0.00 64 1002.0
20260505052008 56 75 0.0 1.0 0.00 0.00 0.00 69 1001.9
20260505051504 55 84 0.0 1.0 0.00 0.00 0.00 74 1001.8
20260505051003 55 124 0.0 0.0 0.00 0.00 0.00 75 1001.7
20260505050500 56 125 0.0 0.0 0.00 0.00 0.00 75 1001.7
20260505041428 60 348 0.0 1.0 0.00 0.03 0.03 76 1000.9
20260505040925 60 85 1.0 2.0 0.00 0.03 0.03 75 1000.8
20260505040423 61 105 1.0 2.0 0.00 0.03 0.03 74 1000.9
20260505035919 61 114 1.0 2.0 0.00 0.03 0.03 74 1001.1
20260505035415 61 121 1.0 1.0 0.00 0.03 0.03 73 1001.2
20260505034913 62 154 0.0 1.0 0.00 0.03 0.03 73 1000.8
20260505034409 62 239 2.0 2.0 0.00 0.03 0.03 74 1001.2
20260505033906 62 227 2.0 3.0 0.00 0.03 0.03 75 1001.2
20260505033403 62 235 2.0 2.0 0.00 0.03 0.03 75 1000.8
20260505032901 62 188 2.0 2.0 0.00 0.03 0.03 74 1001.1
20260505032357 62 163 3.0 3.0 0.00 0.03 0.03 74 1000.8
20260505031854 62 123 1.0 5.0 0.00 0.03 0.03 74 1000.5
20260505031351 62 155 1.0 3.0 0.00 0.03 0.03 74 1000.4
20260505030848 62 155 1.0 2.0 0.00 0.03 0.03 74 1000.6
20260505030344 62 138 1.0 2.0 0.00 0.03 0.03 75 1000.3
20260505025840 62 68 1.0 2.0 0.00 0.03 0.03 75 1000.3
20260505025338 62 101 1.0 2.0 0.00 0.03 0.03 74 1000.3
20260505024836 62 356 2.0 3.0 0.00 0.03 0.03 74 1000.7
20260505024333 62 300 3.0 5.0 0.00 0.03 0.03 75 1000.7
20260505023830 62 88 1.0 3.0 0.00 0.03 0.03 76 1000.5
20260505023327 62 131 0.0 0.0 0.00 0.03 0.03 76 1000.5
20260505022824 62 287 3.0 3.0 0.00 0.03 0.03 74 1000.0
20260505022321 63 348 2.0 3.0 0.00 0.03 0.03 74 1000.1
20260505021819 63 154 1.0 3.0 0.00 0.03 0.03 72 999.7
20260505021315 63 121 1.0 3.0 0.00 0.03 0.03 73 999.6
20260505020811 63 236 1.0 3.0 0.00 0.03 0.03 72 999.5
20260505020307 63 141 1.0 2.0 0.00 0.03 0.03 73 999.4
20260505015804 63 149 2.0 2.0 0.00 0.03 0.03 73 999.1
20260505015301 63 119 1.0 2.0 0.00 0.03 0.03 73 999.1
20260505014758 64 264 2.0 3.0 0.00 0.03 0.03 73 999.0
20260505014255 64 268 2.0 2.0 0.00 0.03 0.03 72 998.9
20260505013751 64 95 1.0 3.0 0.00 0.03 0.03 72 998.7
20260505013249 64 191 3.0 5.0 0.00 0.03 0.03 71 998.6
20260505012747 64 303 1.0 6.0 0.00 0.03 0.03 72 998.8
20260505012244 64 137 1.0 5.0 0.00 0.03 0.03 73 998.8
20260505011739 64 72 1.0 6.0 0.00 0.03 0.03 74 999.0
20260505011237 64 242 3.0 8.0 0.00 0.03 0.03 74 998.6
20260505010732 64 255 3.0 7.0 0.00 0.03 0.03 76 998.7
20260505010229 64 257 3.0 3.0 0.00 0.03 0.03 77 998.4
20260505005726 64 203 2.0 6.0 0.00 0.03 0.03 76 998.6
20260505005223 64 169 4.0 6.0 0.00 0.03 0.03 76 998.3
20260505004720 65 250 4.0 6.0 0.00 0.03 0.03 76 998.6
20260505004216 65 171 4.0 6.0 0.00 0.03 0.03 77 998.6
20260505003713 65 154 3.0 3.0 0.00 0.03 0.03 77 998.8
20260505003211 66 149 2.0 5.0 0.00 0.03 0.03 75 998.6
20260505002707 66 130 0.0 1.0 0.00 0.03 0.03 73 997.6
20260505002205 67 215 1.0 2.0 0.00 0.03 0.03 71 997.5
20260505001702 67 129 1.0 2.0 0.00 0.03 0.03 69 997.4
20260505001159 67 188 3.0 5.0 0.00 0.03 0.03 68 997.8
20260505000656 67 268 2.0 5.0 0.00 0.03 0.03 69 998.1
20260505000154 66 175 2.0 2.0 0.00 0.03 0.03 73 998.6
20260504235650 65 104 2.0 3.0 0.00 0.03 0.03 76 998.4
20260504235147 63 103 1.0 1.0 0.00 0.03 0.03 84 998.2
20260504234644 62 104 0.0 0.0 0.00 0.03 0.03 87 997.8
20260504234142 61 98 0.0 0.0 0.00 0.03 0.03 87 997.6
20260504233637 62 108 0.0 0.0 0.00 0.03 0.03 87 997.8
20260504233133 62 90 0.0 0.0 0.00 0.03 0.03 84 998.0
20260504232631 62 130 0.0 0.0 0.07 0.03 0.03 80 998.2
20260504232128 64 92 0.0 1.0 0.12 0.02 0.02 79 997.9
20260504231624 65 93 1.0 3.0 0.07 0.01 0.01 71 998.1
20260504231115 68 213 3.0 7.0 0.00 0.00 0.00 62 998.2
20260504230611 71 331 6.0 7.0 0.00 0.00 0.00 62 997.9
20260504230110 72 44 1.0 2.0 0.00 0.00 0.00 62 997.1
20260504225608 72 86 1.0 2.0 0.00 0.00 0.00 58 997.1
20260504225104 73 108 0.0 2.0 0.00 0.00 0.00 57 997.1
20260504224601 73 99 0.0 2.0 0.00 0.00 0.00 57 997.4
20260504224058 73 133 0.0 3.0 0.00 0.00 0.00 55 997.3
20260504223555 74 220 1.0 3.0 0.00 0.00 0.00 53 997.4
20260504223050 75 153 1.0 5.0 0.00 0.00 0.00 55 998.1
20260504222548 74 212 2.0 5.0 0.00 0.00 0.00 55 997.9
20260504222045 73 169 4.0 8.0 0.00 0.00 0.00 56 998.0
20260504221542 75 294 5.0 9.0 0.00 0.00 0.00 55 998.1
20260504221039 74 317 5.0 9.0 0.00 0.00 0.00 52 997.8
20260504220535 74 230 4.0 8.0 0.00 0.00 0.00 52 997.9
20260504220032 74 219 4.0 7.0 0.00 0.00 0.00 48 997.9
20260504215529 77 69 4.0 10.0 0.00 0.00 0.00 44 997.8
20260504215026 77 276 5.0 8.0 0.00 0.00 0.00 42 997.6
20260504214522 78 60 5.0 10.0 0.00 0.00 0.00 42 997.5
20260504214019 78 206 5.0 8.0 0.00 0.00 0.00 40 997.7
20260504213515 79 217 4.0 7.0 0.00 0.00 0.00 40 997.9
20260504213012 80 186 3.0 11.0 0.00 0.00 0.00 40 998.0
20260504212508 80 190 3.0 3.0 0.00 0.00 0.00 39 998.1